Home   Weather   Rimouski   Past weeks
Flag for Canada

Past Weather in Rimouski, Quebec, Canada — Yesterday and Last 2 Weeks

Now
46 °F

Scattered clouds.


Feels Like: 42 °F
Forecast: 51 / 39 °F
Wind: 8 mph from Southwest

Location: Mont Joli

Current Time: Oct 16, 2019 at 10:38:20 am

Latest Report: Oct 16, 2019 at 9:00 am


Visibility: 30 mi

Pressure: 30.03 "Hg

Humidity: 66%

Dew Point: 36 °F

Location of RimouskiLocation

Past Weather in Rimouski — Graph

°F

Rimouski Temperature Yesterday

Maximum temperature yesterday: 50 °F (at 2:00 pm)
Minimum temperature yesterday: 41 °F (at 10:00 pm)
Average temperature yesterday: 46 °F

High & Low Weather Summary for the Past Weeks

 TemperatureHumidityPressure
High64 °F (Oct 14, 2:00 pm)100% (Oct 1, 4:48 pm)30.53 "Hg (Oct 1, 4:48 pm)
Low34 °F (Oct 6, 3:00 am)40% (Oct 14, 3:00 pm)29.70 "Hg (Oct 1, 10:00 pm)
Average45 °F77%30.13 "Hg
* Reported Oct 1 9:00 am — Oct 16 9:00 am, Rimouski. Weather by CustomWeather, © 2019

Note: Actual official high and low records may vary slightly from our data, if they occured in-between our weather recording intervals... More about our weather records

Advertising

Rimouski Weather History for the Previous 24 Hours

Scroll right to see more
 ConditionsComfort  
Time TempWeatherWind HumidityBarometerVisibility
9:00 am
Wed, Oct 16
46 °FScattered clouds.8 mph66%30.03 "Hg30 mi
8:00 am43 °FScattered clouds.8 mph71%30.03 "Hg30 mi
7:00 am41 °FScattered clouds.7 mph76%30.02 "Hg30 mi
6:00 am41 °FPassing clouds.9 mph76%30.01 "Hg30 mi
5:00 am43 °FPassing clouds.9 mph71%29.99 "Hg30 mi
4:00 am43 °FClear.10 mph71%29.98 "Hg30 mi
3:00 am45 °FClear.12 mph61%29.97 "Hg30 mi
2:00 am45 °FClear.13 mph61%29.97 "Hg30 mi
1:00 am45 °FClear.13 mph61%29.96 "Hg30 mi
12:00 am45 °FClear.14 mph61%29.95 "Hg30 mi
11:00 pm
Tue, Oct 15
45 °FClear.15 mph66%29.94 "Hg30 mi
10:00 pm41 °FPassing clouds.3 mph76%29.95 "Hg30 mi
9:00 pm45 °FPassing clouds.8 mph66%29.96 "Hg30 mi
8:00 pm46 °FPassing clouds.8 mph66%29.97 "Hg30 mi
7:00 pm45 °FClear.15 mph71%29.96 "Hg30 mi
6:00 pm45 °FPassing clouds.9 mph71%29.94 "Hg30 mi
5:00 pm46 °FPassing clouds.13 mph71%29.93 "Hg30 mi
4:00 pm46 °FPassing clouds.13 mph76%29.93 "Hg30 mi
3:00 pm50 °FPassing clouds.15 mph67%29.93 "Hg15 mi
2:00 pm50 °FPassing clouds.15 mph71%29.94 "Hg15 mi
1:00 pm48 °FPassing clouds.14 mph76%29.94 "Hg30 mi
12:00 pm48 °FPassing clouds.12 mph76%29.96 "Hg30 mi
11:00 am48 °FPassing clouds.15 mph66%29.96 "Hg30 mi
Weather by CustomWeather, © 2019

See weather overview